Terminal Aerodrome Forecast
Issued by NWS

Home | Current Version | Previous Version | Text Only | Print | Product List | Glossary On
Versions: 1 2 3 4 5 6 7 8 9 10 11 12 13 14 15 16 17 18 19 20 21 22 23 24 25 26 27 28 29 30 31 32 33 34 35 36 37 38 39 40 41 42 43 44 45 46 47 48 49 50
000
FTAK31 PANC 212117 AAB
TAFADL
TAF AMD
PADL 212117Z 2121/2218 35011KT P6SM VCSH SCT015 BKN045
      TEMPO 2121/2124 BKN015
     FM220300 35015KT P6SM SKC
     FM221200 35005KT P6SM SKC=

USA.gov is the U.S. government's official web portal to all federal, state and local government web resources and services.